Location: Seattle
(47.6064°N, 122.3308°W)
Time: 01:32:44
(UTC-08:00)

A-11 Canister half - Pass Details

Date: 03 December 2020
Orbit: 1524 x 1684 km, 47.3° (Epoch: 21 January)

Event Time Altitude Azimuth Distance (km) Brightness Sun altitude
Rises 09:24:24 0° 284° (WNW) 4,927 11.2 12.0°
Reaches altitude 10° 09:27:36 10° 283° (WNW) 3,926 10.7 12.3°
Maximum altitude 09:37:36 73° 202° (SSW) 1,697 9.7 13.2°
Drops below altitude 10° 09:47:15 10° 120° (ESE) 3,800 12.3 14.1°
Sets 09:50:17 0° 118° (ESE) 4,762 12.6 14.4°
